Regional Weather Roundup
Issued by NWS

Home | Current Version | Previous Version | Text Only | Print | Product List | Glossary On
Versions: 1 2 3 4 5 6 7 8 9 10 11 12 13 14 15 16 17 18 19 20 21 22 23 24 25 26 27 28 29 30 31 32 33 34 35 36 37 38 39 40 41 42 43 44 45 46 47 48 49 50
000
ASUS42 KKEY 290010
RWRKEY

FLORIDA REGIONAL WEATHER ROUNDUP FOR THE FLORIDA KEYS
NATIONAL WEATHER SERVICE KEY WEST FLORIDA
700 PM EST FRI NOV 28 2014

...SOUTH FLORIDA AND THE KEYS...

CITY           SKY/WX    TMP DP  RH WIND       PRES   REMARKS
FORT MYERS     CLEAR     56  42  59 NE6       30.23R
SW REGIONAL AP CLEAR     57  40  52 N7        30.23R
NAPLES         CLEAR     58  37  45 N5        30.22R
MIAMI          PTCLDY    65  51  60 N10       30.19R
WEST KENDALL   CLEAR     63  52  67 N10       30.19R
HOMESTEAD      CLEAR     63  52  67 NW8       30.18R
MARATHON       CLEAR     65  53  65 N13       30.17R
BOCA CHICA NAS CLEAR     64  50  60 NE10      30.18R
KEY WEST INTL  CLEAR     65  51  60 NE8       30.19R

...INTERNATIONAL WEATHER...

CITY           SKY/WX    TMP DP  RH WIND       PRES   REMARKS
NASSAU BAHAMAS NOT AVBL
CANCUN MEXICO  PTCLDY    73  59  60 NE8       30.12S
COZUMEL MEXICO PTCLDY    70  61  73 NE9G21    30.11S

ADJACENT COASTAL WATERS...

STATION/POSITION TIME  SKY/WX   TEMP    WIND        PRES    WAVE
                                AIR SEA DIR/SP/G            HT/PER
                 (UTC)          (F)     (DEG/KT/KT) (MB)    (FT/S)
PULASKI SHOAL LI 2300            65      30/ 18/ 19 1021.8R
SAND KEY         2241            66      20/ 19/ 23 1021.3R
SOMBRERO KEY     0000            66      20/ 19/ 20 1021.9R
LONG KEY         2257            66 68   10/ 17/ 19 1022.1R
MOLASSES REEF    0000            65 72  350/ 19/ 21 1020.9R
FOWEY ROCKS      NOT AVBL
Buoy 42080       NOT AVBL

$$


USA.gov is the U.S. government's official web portal to all federal, state and local government web resources and services.